GW2632 Weather Reports


Display with metric or nautical units.
time (UTC)temp
F
wind
direction
speed
MPH
gust
MPH
rain 1hr
in
rain 24hr
in
rain mn
in
humidity
%
barometer
mb
20260506080529 64 354 0.0 0.0 0.00 0.00 0.00 89 1015.7
20260506073512 64 352 0.0 0.0 0.00 0.00 0.00 88 1015.6
20260506073009 64 352 0.0 0.0 0.00 0.00 0.00 88 1015.8
20260506072507 64 352 0.0 0.0 0.00 0.00 0.00 87 1015.8
20260506072004 64 352 0.0 0.0 0.00 0.00 0.00 87 1015.9
20260506071502 64 352 0.0 0.0 0.00 0.00 0.00 87 1015.7
20260506070959 64 352 0.0 0.0 0.00 0.00 0.00 87 1015.7
20260506070456 65 352 0.0 0.0 0.00 0.00 0.00 87 1015.6
20260506062433 65 350 0.0 0.0 0.00 0.00 0.00 84 1016.4
20260506061929 65 350 0.0 0.0 0.00 0.00 0.00 84 1016.3
20260506061426 65 350 0.0 0.0 0.00 0.00 0.00 83 1016.2
20260506060924 66 350 0.0 0.0 0.00 0.00 0.00 83 1016.2
20260506060422 66 350 0.0 0.0 0.00 0.00 0.00 83 1016.3
20260506051354 66 355 0.0 0.0 0.00 0.00 0.00 80 1016.5
20260506050851 67 355 0.0 0.0 0.00 0.00 0.00 80 1016.8
20260506050349 67 355 0.0 0.0 0.00 0.00 0.00 79 1016.8
20260506044839 67 355 0.0 0.0 0.00 0.00 0.00 78 1016.8
20260506044337 67 355 0.0 0.0 0.00 0.00 0.00 77 1016.8
20260506043833 68 355 0.0 0.0 0.00 0.00 0.00 77 1016.6
20260506043331 68 355 0.0 0.0 0.00 0.00 0.00 76 1016.8
20260506042829 68 355 0.0 0.0 0.00 0.00 0.00 75 1016.6
20260506042328 68 355 0.0 0.0 0.00 0.00 0.00 75 1016.5
20260506041826 68 355 0.0 0.0 0.00 0.00 0.00 75 1016.7
20260506041323 68 351 0.0 0.0 0.00 0.00 0.00 74 1016.6
20260506040820 69 351 0.0 0.0 0.00 0.00 0.00 74 1016.7
20260506040317 69 350 0.0 0.0 0.00 0.00 0.00 74 1016.6
20260506035813 68 357 0.0 0.0 0.00 0.00 0.00 74 1016.6
20260506035311 68 356 0.0 0.0 0.00 0.00 0.00 74 1016.5
20260506034808 69 355 0.0 0.0 0.00 0.00 0.00 73 1016.6
20260506034305 69 355 0.0 0.0 0.00 0.00 0.00 72 1016.6
20260506033802 69 355 0.0 0.0 0.00 0.00 0.00 71 1016.5
20260506033259 69 355 0.0 0.0 0.00 0.00 0.00 70 1016.6
20260506032756 70 355 0.0 0.0 0.00 0.00 0.00 69 1016.6
20260506032253 70 355 0.0 0.0 0.00 0.00 0.00 69 1016.4
20260506031749 70 359 0.0 0.0 0.00 0.00 0.00 68 1016.4
20260506031247 71 1 0.0 1.0 0.00 0.00 0.00 68 1016.5
20260506030745 70 1 0.0 0.0 0.00 0.00 0.00 67 1016.3
20260506030242 70 68 2.0 2.0 0.00 0.00 0.00 67 1016.1
20260506025739 70 359 0.0 0.0 0.00 0.00 0.00 67 1016.0
20260506025235 71 358 0.0 0.0 0.00 0.00 0.00 66 1016.1
20260506024732 71 8 0.0 1.0 0.00 0.00 0.00 66 1016.4
20260506024229 71 355 1.0 2.0 0.00 0.00 0.00 66 1016.3
20260506023725 71 36 0.0 1.0 0.00 0.00 0.00 66 1016.2
20260506023222 71 11 1.0 1.0 0.00 0.00 0.00 66 1016.1
20260506022719 71 16 1.0 1.0 0.00 0.00 0.00 65 1016.2
20260506022217 71 359 0.0 0.0 0.00 0.00 0.00 65 1016.4
20260506021715 71 359 0.0 1.0 0.00 0.00 0.00 64 1016.2
20260506021211 71 357 0.0 0.0 0.00 0.00 0.00 64 1016.1
20260506020708 71 1 0.0 0.0 0.00 0.00 0.00 63 1016.0
20260506020206 72 6 0.0 1.0 0.00 0.00 0.00 63 1016.2
20260506015703 72 1 0.0 1.0 0.00 0.00 0.00 62 1015.9
20260506015201 72 14 1.0 1.0 0.00 0.00 0.00 62 1015.8
20260506014658 72 353 0.0 0.0 0.00 0.00 0.00 62 1016.1
20260506014153 72 350 0.0 0.0 0.00 0.00 0.00 61 1015.9
20260506013652 72 6 0.0 1.0 0.00 0.00 0.00 61 1015.9
20260506013148 73 358 0.0 1.0 0.00 0.00 0.00 60 1015.9
20260506012644 73 7 0.0 1.0 0.00 0.00 0.00 60 1015.9
20260506012141 73 9 1.0 1.0 0.00 0.00 0.00 60 1015.9
20260506011639 73 9 0.0 1.0 0.00 0.00 0.00 60 1015.9
20260506011135 73 354 0.0 2.0 0.00 0.00 0.00 59 1015.9
20260506010634 73 13 0.0 1.0 0.00 0.00 0.00 59 1015.8
20260506010131 74 359 1.0 2.0 0.00 0.00 0.00 59 1015.8
20260506005628 74 48 2.0 2.0 0.00 0.00 0.00 59 1015.8
20260506005124 74 333 1.0 1.0 0.00 0.00 0.00 59 1015.7
20260506004621 74 57 2.0 2.0 0.00 0.00 0.00 59 1015.4
20260506004118 74 23 2.0 4.0 0.00 0.00 0.00 58 1015.6
20260506003614 74 164 1.0 3.0 0.00 0.00 0.00 58 1015.2
20260506003110 75 358 0.0 1.0 0.00 0.00 0.00 57 1015.2
20260506002606 75 112 1.0 3.0 0.00 0.00 0.00 56 1015.0
20260506002102 75 1 2.0 3.0 0.00 0.00 0.00 55 1015.2
20260506001559 75 43 2.0 2.0 0.00 0.00 0.00 55 1015.3
20260506001056 75 5 0.0 1.0 0.00 0.00 0.00 54 1015.3
20260506000553 76 33 3.0 4.0 0.00 0.00 0.00 54 1015.0
20260506000051 76 21 2.0 2.0 0.00 0.00 0.00 53 1014.9
20260505235549 76 55 3.0 4.0 0.00 0.00 0.00 53 1015.1
20260505235045 76 24 2.0 4.0 0.00 0.00 0.00 52 1015.1
20260505234542 77 8 2.0 4.0 0.00 0.00 0.00 52 1015.1
20260505234039 77 17 3.0 3.0 0.00 0.00 0.00 53 1015.2
20260505233536 77 28 0.0 2.0 0.00 0.00 0.00 53 1015.0
20260505233034 77 34 3.0 7.0 0.00 0.00 0.00 53 1015.0
20260505232532 77 165 3.0 7.0 0.00 0.00 0.00 52 1014.9
20260505232029 78 345 1.0 6.0 0.00 0.00 0.00 52 1015.1
20260505231525 78 52 2.0 4.0 0.00 0.00 0.00 52 1014.8
20260505231024 78 85 1.0 8.0 0.00 0.00 0.00 51 1015.1
20260505230521 78 40 1.0 6.0 0.00 0.00 0.00 50 1015.0
20260505230018 79 349 2.0 7.0 0.00 0.00 0.00 50 1014.9
20260505225514 79 17 2.0 8.0 0.00 0.00 0.00 50 1015.0
20260505225010 79 123 3.0 8.0 0.00 0.00 0.00 50 1015.0
20260505224508 79 103 2.0 7.0 0.00 0.00 0.00 50 1014.8
20260505224005 80 72 2.0 2.0 0.00 0.00 0.00 50 1014.9
20260505223502 80 35 2.0 4.0 0.00 0.00 0.00 50 1015.0
20260505222958 80 116 2.0 4.0 0.00 0.00 0.00 51 1015.0
20260505222454 80 29 3.0 4.0 0.00 0.00 0.00 50 1014.8
20260505221950 80 130 4.0 6.0 0.00 0.00 0.00 50 1015.0
20260505221448 80 87 3.0 7.0 0.00 0.00 0.00 49 1015.1
20260505220945 81 15 2.0 6.0 0.00 0.00 0.00 49 1014.9
20260505220442 81 4 5.0 7.0 0.00 0.00 0.00 49 1014.9
20260505215939 80 122 4.0 8.0 0.00 0.00 0.00 50 1015.1
20260505215437 80 50 5.0 7.0 0.00 0.00 0.00 50 1014.9
20260505214935 81 78 3.0 6.0 0.00 0.00 0.00 49 1015.0
20260505214432 81 143 4.0 6.0 0.00 0.00 0.00 49 1015.1
20260505213929 81 74 3.0 4.0 0.00 0.00 0.00 49 1014.9
20260505213427 81 125 4.0 6.0 0.00 0.00 0.00 51 1015.0
20260505212923 81 123 1.0 4.0 0.00 0.00 0.00 50 1014.8
20260505212420 81 132 3.0 9.0 0.00 0.00 0.00 50 1015.0
20260505211916 81 123 2.0 15.0 0.00 0.00 0.00 51 1015.0
20260505211414 81 144 3.0 7.0 0.00 0.00 0.00 51 1014.8
20260505210910 81 32 5.0 7.0 0.00 0.00 0.00 50 1014.7
20260505210408 82 120 7.0 9.0 0.00 0.00 0.00 49 1014.7
20260505205904 82 352 1.0 7.0 0.00 0.00 0.00 50 1014.7
20260505205403 82 71 6.0 8.0 0.00 0.00 0.00 48 1015.1
20260505204859 83 346 2.0 6.0 0.00 0.00 0.00 49 1014.6
20260505204357 84 161 4.0 7.0 0.00 0.00 0.00 47 1014.6
20260505203854 85 134 5.0 7.0 0.00 0.00 0.00 48 1014.7
20260505203350 85 348 0.0 4.0 0.00 0.00 0.00 46 1014.5
20260505202847 84 37 2.0 7.0 0.00 0.00 0.00 46 1014.7
20260505202343 83 1 1.0 4.0 0.00 0.00 0.00 48 1014.8
20260505201840 82 6 3.0 8.0 0.00 0.00 0.00 48 1014.9
20260505201337 82 153 4.0 7.0 0.00 0.00 0.00 48 1015.1
20260505200836 84 116 5.0 8.0 0.00 0.00 0.00 46 1014.9
20260505200332 84 151 4.0 7.0 0.00 0.00 0.00 49 1015.0
20260505195828 84 207 2.0 8.0 0.00 0.00 0.00 47 1014.9
20260505195325 84 356 4.0 7.0 0.00 0.00 0.00 47 1015.2
20260505194822 85 135 4.0 8.0 0.00 0.00 0.00 47 1014.9
20260505194319 86 136 3.0 6.0 0.00 0.00 0.00 46 1015.2
20260505193814 85 10 2.0 3.0 0.00 0.00 0.00 46 1015.0
20260505193312 85 91 3.0 4.0 0.00 0.00 0.00 46 1015.0
20260505192810 84 353 1.0 4.0 0.00 0.00 0.00 48 1015.1
20260505192310 83 331 0.0 2.0 0.00 0.00 0.00 49 1015.3
20260505191806 82 349 2.0 2.0 0.00 0.00 0.00 49 1015.2
20260505191304 82 359 0.0 6.0 0.00 0.00 0.00 49 1015.3
20260505190800 82 350 0.0 3.0 0.00 0.00 0.00 50 1015.4
20260505190255 82 89 2.0 4.0 0.00 0.00 0.00 50 1015.5
20260505185752 82 137 1.0 3.0 0.00 0.00 0.00 50 1015.6
20260505185248 82 145 3.0 7.0 0.00 0.00 0.00 51 1015.7
20260505184744 82 305 1.0 4.0 0.00 0.00 0.00 51 1015.6
20260505184242 82 40 2.0 3.0 0.00 0.00 0.00 51 1015.7
20260505183738 82 7 1.0 3.0 0.00 0.00 0.00 50 1015.8
20260505183236 82 128 2.0 6.0 0.00 0.00 0.00 48 1015.7
20260505182732 82 158 5.0 10.0 0.00 0.00 0.00 49 1015.8
20260505182229 83 17 2.0 7.0 0.00 0.00 0.00 47 1015.6
20260505181725 84 144 2.0 2.0 0.00 0.00 0.00 46 1015.9
20260505181223 86 150 4.0 7.0 0.00 0.00 0.00 45 1015.9
20260505180719 86 359 1.0 3.0 0.00 0.00 0.00 44 1015.9
20260505180216 85 270 3.0 4.0 0.00 0.00 0.00 44 1016.2
20260505175712 84 300 2.0 6.0 0.00 0.00 0.00 47 1016.1
20260505175209 84 107 2.0 7.0 0.00 0.00 0.00 46 1016.3
20260505174705 84 23 1.0 3.0 0.00 0.00 0.00 46 1016.2
20260505174202 85 124 3.0 4.0 0.00 0.00 0.00 46 1016.2
20260505173658 84 105 1.0 3.0 0.00 0.00 0.00 47 1016.3
20260505173155 84 348 1.0 3.0 0.00 0.00 0.00 45 1016.2
20260505172653 83 87 4.0 6.0 0.00 0.00 0.00 48 1016.2
20260505172149 82 152 3.0 9.0 0.00 0.00 0.00 48 1016.3
20260505171649 83 104 1.0 2.0 0.00 0.00 0.00 46 1016.4
20260505171146 83 348 0.0 1.0 0.00 0.00 0.00 45 1016.3
20260505170644 84 36 3.0 4.0 0.00 0.00 0.00 43 1016.4
20260505170140 84 35 2.0 4.0 0.00 0.00 0.00 44 1016.4
20260505165640 84 329 1.0 7.0 0.00 0.00 0.00 44 1016.5
20260505165137 85 313 2.0 2.0 0.00 0.00 0.00 43 1016.4
20260505164632 84 97 3.0 6.0 0.00 0.00 0.00 46 1016.6
20260505164130 84 111 2.0 3.0 0.00 0.00 0.00 45 1016.5
20260505163628 84 133 2.0 6.0 0.00 0.00 0.00 44 1016.4
20260505163125 84 16 2.0 6.0 0.00 0.00 0.00 43 1016.6
20260505162623 84 350 1.0 6.0 0.00 0.00 0.00 44 1016.6
20260505162120 85 34 2.0 3.0 0.00 0.00 0.00 45 1016.5
20260505161617 84 338 3.0 4.0 0.00 0.00 0.00 47 1016.5
20260505161114 84 125 1.0 6.0 0.00 0.00 0.00 48 1016.7
20260505160612 83 41 2.0 3.0 0.00 0.00 0.00 46 1016.8
20260505160109 83 36 2.0 3.0 0.00 0.00 0.00 47 1016.4
20260505153049 82 57 2.0 4.0 0.00 0.00 0.00 48 1016.8
20260505152545 82 130 4.0 7.0 0.00 0.00 0.00 50 1016.7
20260505152041 82 16 1.0 2.0 0.00 0.00 0.00 49 1016.6
20260505151536 83 345 2.0 6.0 0.00 0.00 0.00 51 1016.7
20260505151034 81 24 1.0 3.0 0.00 0.00 0.00 50 1016.8
20260505150530 81 95 6.0 10.0 0.00 0.00 0.00 53 1016.5
20260505140455 77 66 3.0 7.0 0.00 0.00 0.00 65 1016.4
20260505124909 74 140 2.0 6.0 0.00 0.00 0.00 75 1016.3
20260505124406 73 48 2.0 4.0 0.00 0.00 0.00 75 1016.2
20260505123902 73 105 2.0 4.0 0.00 0.00 0.00 76 1016.3
20260505123359 72 52 2.0 2.0 0.00 0.00 0.00 77 1016.5
20260505122854 71 30 1.0 1.0 0.00 0.00 0.00 79 1016.4
20260505122352 71 51 1.0 4.0 0.00 0.00 0.00 80 1016.5
20260505121849 71 51 2.0 3.0 0.00 0.00 0.00 80 1016.1
20260505121346 70 35 1.0 2.0 0.00 0.00 0.00 81 1016.2
20260505120842 69 24 0.0 1.0 0.00 0.00 0.00 84 1015.9
20260505120338 67 33 1.0 2.0 0.00 0.00 0.00 90 1016.1
20260505115837 66 12 1.0 1.0 0.00 0.00 0.00 92 1015.8
20260505115334 65 355 0.0 0.0 0.00 0.00 0.00 93 1016.1
20260505114832 64 353 0.0 0.0 0.00 0.00 0.00 93 1016.2
20260505114328 64 352 0.0 0.0 0.00 0.00 0.00 93 1016.1
20260505113825 64 352 0.0 0.0 0.00 0.00 0.00 93 1016.0
20260505113321 63 353 0.0 0.0 0.00 0.00 0.00 93 1015.8
20260505112817 63 353 0.0 0.0 0.00 0.00 0.00 93 1015.9
20260505112314 63 353 0.0 0.0 0.00 0.00 0.00 93 1015.6
20260505111810 62 353 0.0 0.0 0.00 0.00 0.00 93 1015.5
20260505111305 62 353 0.0 0.0 0.00 0.00 0.00 93 1015.5
20260505110801 62 0 0.0 0.0 0.00 0.00 0.00 93 1015.4
20260505110300 62 0 0.0 0.0 0.00 0.00 0.00 93 1015.3
20260505101733 62 0 0.0 0.0 0.00 0.00 0.00 91 1015.3
20260505101229 62 0 0.0 0.0 0.00 0.00 0.00 91 1015.2
20260505100726 63 0 0.0 0.0 0.00 0.00 0.00 91 1015.3
20260505100223 63 0 0.0 0.0 0.00 0.00 0.00 90 1015.1
20260505095723 63 0 0.0 0.0 0.00 0.00 0.00 90 1015.0
20260505095222 63 0 0.0 0.0 0.00 0.00 0.00 90 1015.0
20260505094717 63 0 0.0 0.0 0.00 0.00 0.00 90 1015.1
20260505094214 63 0 0.0 0.0 0.00 0.00 0.00 90 1014.9
20260505093710 62 0 0.0 0.0 0.00 0.00 0.00 90 1014.9
20260505093208 62 0 0.0 0.0 0.00 0.00 0.00 90 1014.9
20260505092704 62 0 0.0 0.0 0.00 0.00 0.00 90 1014.8
20260505092203 62 0 0.0 0.0 0.00 0.00 0.00 90 1015.0
20260505091700 62 0 0.0 0.0 0.00 0.00 0.00 90 1014.9
20260505091158 62 0 0.0 0.0 0.00 0.00 0.00 90 1014.9
20260505090655 62 0 0.0 0.0 0.00 0.00 0.00 90 1014.7
20260505090153 62 0 0.0 0.0 0.00 0.00 0.00 90 1014.5
20260505085650 62 0 0.0 0.0 0.00 0.00 0.00 90 1014.8
20260505085148 62 0 0.0 0.0 0.00 0.00 0.00 90 1014.9
20260505084645 62 0 0.0 0.0 0.00 0.00 0.00 90 1014.6
20260505084144 62 0 0.0 0.0 0.00 0.00 0.00 90 1014.8
20260505083641 62 0 0.0 0.0 0.00 0.00 0.00 89 1014.6
20260505083137 62 0 0.0 0.0 0.00 0.00 0.00 89 1014.8
20260505082633 62 0 0.0 0.0 0.00 0.00 0.00 89 1014.6
20260505082131 62 0 0.0 0.0 0.00 0.00 0.00 89 1014.8
20260505081626 62 0 0.0 0.0 0.00 0.00 0.00 89 1014.6
20260505081125 62 0 0.0 0.0 0.00 0.00 0.00 89 1014.5
20260505080620 62 0 0.0 0.0 0.00 0.00 0.00 89 1014.7